Location: Newark
(55.1225°N, 33.2808°E)
Time: 07:51:14
(UTC+00:00)

N. Korean satellite - Visible Passes

Search period start: 20 September 2019 00:00
Search period end: 30 September 2019 00:00
Orbit: 455 x 509 km, 97.2° (Epoch: 19 September)

Date Brightness Start Highest point End Pass type
(mag) Time Alt. Az. Time Alt. Az. Time Alt. Az.
22 Sep 10.4 02:34:32 10° ENE 02:35:21 11° E 02:36:11 10° E visible
25 Sep 9.8 02:51:03 10° NE 02:53:15 16° E 02:55:27 10° SE visible
26 Sep 10.7 16:17:50 10° W 16:17:58 10° W 16:18:07 10° W visible
29 Sep 10.0 02:43:47 10° NE 02:45:37 14° E 02:47:28 10° ESE visible
